Home   Weather   Jacksonville   Past weeks

Flag for USA Past Weather in Jacksonville, Florida, USA — Yesterday and Last 2 Weeks

Now
84 °F

Passing clouds.


Feels Like: 89 °F
Forecast: 76 / 90 °F
Wind: 5 mph from North

Location: Jacksonville Naval Air Station

Current Time: Jun 25, 2017 at 1:27:33 am

Latest Report: Jun 25, 2017 at 12:53 am


Visibility: 10 mi

Pressure: 30.08 "Hg

Humidity: 65%

Dew Point: 71 °F

Location of JacksonvilleLocation

Past Weather in Jacksonville — Graph

°F

Jacksonville Temperature Yesterday

Maximum temperature yesterday: 97 °F (at 4:53 pm)
Minimum temperature yesterday: 79 °F (at 5:53 am)
Average temperature yesterday: 87 °F

High & Low Weather Summary for the Past Weeks

 TemperatureHumidityPressure
High97 °F (Jun 24, 4:53 pm)97% (Jun 12, 12:53 am)30.17 "Hg (Jun 12, 12:53 am)
Low73 °F (Jun 14, 4:53 am)37% (Jun 23, 5:53 pm)29.86 "Hg (Jun 16, 8:53 pm)
Average80 °F79%30.02 "Hg
* Reported Jun 9 11:53 pm — Jun 24 11:53 pm, Jacksonville. Weather by CustomWeather, © 2017

Note: Actual official high and low records may vary slightly from our data, if they occured in-between our weather recording intervals... More about our weather records

Advertising

Jacksonville Weather History for the Previous 24 Hours

Scroll right to see more
 ConditionsComfort  
Time TempWeatherWind HumidityBarometerVisibility
11:53 pm
Sat, Jun 24
86 °FPassing clouds.5 mph63%30.06 "Hg10 mi
10:53 pm86 °FPassing clouds.7 mph75%30.06 "Hg10 mi
9:53 pm86 °FPassing clouds.12 mph70%30.05 "Hg10 mi
8:53 pm87 °FPassing clouds.12 mph67%30.02 "Hg10 mi
7:53 pm90 °FPartly sunny.15 mph63%30.00 "Hg10 mi
6:53 pm92 °FScattered clouds.8 mph58%29.99 "Hg10 mi
5:53 pm96 °FScattered clouds.9 mph43%29.99 "Hg10 mi
4:53 pm97 °FScattered clouds.12 mph42%30.00 "Hg10 mi
3:53 pm95 °FScattered clouds.12 mph44%30.01 "Hg10 mi
2:53 pm94 °FScattered clouds.12 mph48%30.02 "Hg10 mi
1:53 pm93 °FScattered clouds.6 mph49%30.04 "Hg10 mi
12:53 pm91 °FScattered clouds.12 mph52%30.05 "Hg10 mi
11:53 am88 °FPassing clouds.8 mph59%30.06 "Hg10 mi
10:53 am87 °FPassing clouds.8 mph61%30.06 "Hg10 mi
9:53 am84 °FScattered clouds.6 mph67%30.05 "Hg10 mi
8:53 am82 °FScattered clouds.7 mph72%30.05 "Hg10 mi
7:53 am79 °FScattered clouds.5 mph84%30.03 "Hg10 mi
6:53 am79 °FScattered clouds.6 mph88%30.01 "Hg10 mi
5:53 am79 °FPassing clouds.7 mph84%30.00 "Hg10 mi
4:53 am81 °FPassing clouds.6 mph82%29.99 "Hg10 mi
3:53 am81 °FPassing clouds.6 mph82%30.00 "Hg10 mi
2:53 am82 °FClear.10 mph82%29.99 "Hg10 mi
1:53 am82 °FPassing clouds.9 mph79%30.02 "Hg10 mi
Weather by CustomWeather, © 2017

See weather overviewHow to use our weather pages